Regional Weather Roundup
Issued by NWS Charleston, SC

Current Version | Previous Version | Graphics & Text | Print | Product List | Glossary On
Versions: 1 2 3 4 5 6 7 8 9 10 11 12 13 14 15 16 17 18 19 20 21 22 23 24 25 26 27 28 29 30 31 32 33 34 35 36 37 38 39 40 41 42 43 44 45 46 47 48 49 50
000
ASUS42 KCHS 042028
RWRCHS

REGIONAL WEATHER ROUNDUP
NATIONAL WEATHER SERVICE CHARLESTON SC
400 PM EDT WED MAY 04 2016

NOTE: "FAIR" INDICATES FEW OR NO CLOUDS BELOW 12,000 FEET WITH NO
SIGNIFICANT WEATHER AND/OR OBSTRUCTIONS TO VISIBILITY.

NOT ALL STATIONS ARE QUALITY CONTROLLED. USE DATA WITH CAUTION...
ESPECIALLY DEWPOINT OBSERVATIONS.

SCZ027-030-031-034>040-042>050-042100-
...SOUTHEAST SOUTH CAROLINA...

CITY           SKY/WX    TMP DP  RH WIND       PRES   REMARKS
N CHARLESTON   MOSUNNY   80  48  32 NW10G22   29.62F
WATERFRONT PRK   N/A     78  54  43 SW8       29.60F
MOUNT PLEASANT FAIR      81  48  32 W12       29.61S
JOHNS ISLAND   FAIR      79  52  38 SW12G18   29.62F
PINOPOLIS        N/A     79  50  36 W7        29.56F
MONCKS CORNER  FAIR      77  41  27 W6        29.61F
SUMMERVILLE    FAIR      79  48  34 W8G17     29.64F
BEAUFORT MCAS  MOSUNNY   80  46  30 W10       29.65F
BEAUFORT ARPT  FAIR      79  46  31 W17       29.64F
HILTON HEAD IS MOSUNNY   81  50  34 W8G16     29.66F
WALTERBORO     CLEAR     79  39  24 SW9G17    29.65F
ALLENDALE      FAIR      77  43  29 VRB7G14   29.65F

...SOUTHERN MIDLANDS AND PEE DEE...

CITY           SKY/WX    TMP DP  RH WIND       PRES   REMARKS
GEORGETOWN     FAIR      79  50  36 W10       29.61F
KINGSTREE      FAIR      75  46  35 W10       29.62S
ORANGEBURG     SUNNY     77  46  33 W12       29.64F
BARNWELL       FAIR      79  45  29 W12G17    29.66S
AIKEN          FAIR      72  41  33 W8G16     29.69F
MANNING        MOCLDY    75  48  38 NW7       29.62F
COLUMBIA       MOSUNNY   77  44  30 W17G24    29.63F
SUMTER         MOSUNNY   77  48  35 W12G21    29.60F
FLORENCE       MOSUNNY   76  51  41 W8        29.60F
MYRTLE BEACH   PTSUNNY   81  54  39 W14G22    29.60F
N MYRTLE BEACH MOSUNNY   80  53  39 W15G22    29.58F

$$

GAZ063-065-086>088-099>101-113>116-118-119-134>141-150-042100-
...SOUTHEAST GEORGIA...

CITY           SKY/WX    TMP DP  RH WIND       PRES   REMARKS
SAVANNAH ARPT  MOSUNNY   80  47  31 W14G21    29.66F
HUNTER AAF     SUNNY     81  53  38 W15       29.63F
FORT STEWART   SUNNY     79  48  33 VRB2G20   29.65F
STATESBORO     SUNNY     80  52  36 NW14      29.67F
SYLVANIA       CLEAR     78  48  34 N9G20     29.67F
CLAXTON        FAIR      77  52  40 W14       29.67F

...CSRA...CENTRAL AND FAR SOUTHEAST GEORGIA...

CITY           SKY/WX    TMP DP  RH WIND       PRES   REMARKS
THOMSON        SUNNY     74  48  39 W9G17     29.72F
AUGUSTA-BUSH   SUNNY     76  43  30 NW15G25   29.66F
AUGUSTA-DANIEL SUNNY     74  42  31 W10G16    29.68F
SWAINSBORO     FAIR      75  45  33 W10G18    29.69F
VIDALIA        SUNNY     77  45  31 W13G18    29.69S
EASTMAN        FAIR      76  47  35 W8        29.73F
HAZLEHURST     FAIR      78  47  33 NW7G16    29.69S
ALMA           SUNNY     78  49  35 NW10      29.69F
WAYCROSS       MOSUNNY   78  53  42 NW6       29.68F
JESUP          FAIR      81  54  39 W10G16    29.68F
BAXLEY         FAIR      79  46  31 NW10G17   29.68F
BRUNSWICK      PTSUNNY   84  55  37 CALM      29.68F
SAINT SIMONS   CLOUDY    80  55  42 MISG      29.67F

$$

SCZ027-028-034-036>038-045-046-048>050-GAZ119-141-042100-
...LAKE AND SUPPLEMENTAL COASTAL OBSERVATIONS...

STATION/POSITION TIME  TEMP    WIND        PRES    WAVE   SWELL
                       AIR SEA DIR/SP/G            HT/PER HT/PER/DIR
                 (UTC) (F)     (DEG/KT/KT) (MB)    (FT/S) (FT/S/D)
WINYAH BAY       1945   79     280/ 10     1001.0F
LAKE MURRAY      1900   71     250/ 10/ 16 1004.1F
ACE BASIN NERRS  1900   77     250/  5     1005.0S
FORT PULASKI     2000   76 76  280/ 12/ 16 1004.4F
SAPELO ISLAND    2000   79     240/  6     1005.0S

$$

ANZ835-935-AMZ111-154-330-350-352-354-370-450-454-472-042100-
...C-MAN AND BUOY OBSERVATIONS...

STATION/POSITION TIME  TEMP    WIND        PRES    WAVE   SWELL
                       AIR SEA DIR/SP/G            HT/PER HT/PER/DIR
                 (UTC) (F)     (DEG/KT/KT) (MB)    (FT/S) (FT/S/D)
BUOY 41004       1950   73 75  240/ 14/ 17 1003.1F   3/ 6   2/ 9
BUOY 41008       NOT AVBL
FOLLY BEACH CMAN 2000   78     240/ 10/ 14 1003.3F
CAPERS NEARSHORE 2008   72 72  220/ 17/ 23 1002.4F
FRIPP NEARSHORE  2008   75 71  270/ 10/ 16 1003.1F


STATION/POSITION TIME  TEMP    WIND        PRES    WAVE   SWELL
                       AIR SEA DIR/SP/G            HT/PER HT/PER/DIR
                 (UTC) (F)     (DEG/KT/KT) (MB)    (FT/S) (FT/S/D)
5E ST. MARYS GA  1921      73                N/A     2/ 6
FRYING PAN BUOY  2000   73 73  240/ 14/ 16 1002.1F
BUOY 41025       1950   70 71  230/  8/ 10 1001.9F   3/ 8   3/180/ 8
CAPE LOOKOUT NC  2000   69     170/ 10/ 11 1000.8F
BUOY 41002       1950   74 74  160/ 14/ 17 1004.8F   5/ 7
BUOY 41010       1920   77 78  210/ 16/ 17 1007.0F
ST AUGUSTINE FL  2000   68 71  260/  7/ 10 1006.3F


$$



USA.gov is the U.S. government's official web portal to all federal, state and local government web resources and services.